Wind_Speed
42 42 42 43 44 44 45 46 47 47 47 47 47 48 49 49 50 50 50 50 50 50 50 50 50 50 49 50 50 51 51 51 51 51 51 50 50 50
43 43 43 43 43 45 46 47 48 48 49 48 48 48 48 48 48 49 50 50 50 49 50 50 49 49 50 50 51 51 52 51 51 51 51 51 51 51
43 44 44 44 44 45 46 47 47 48 48 48 49 48 48 48 48 49 49 50 51 51 50 50 50 51 51 51 51 51 51 51 51 51 51 51 52 51
43 43 44 45 45 45 46 47 47 47 48 48 48 49 49 49 49 50 50 51 51 51 51 51 52 53 53 53 52 52 52 52 52 52 52 52 52 52
43 44 44 44 45 46 46 46 46 46 47 48 48 48 49 50 50 51 50 51 52 52 52 52 52 53 53 54 53 52 53 53 53 54 54 53 54 54
43 43 44 45 45 46 46 46 46 46 46 46 47 47 48 48 49 50 50 51 52 52 52 52 53 53 53 54 54 54 54 54 54 55 55 55 55 55
43 44 44 45 46 46 47 47 47 47 46 46 46 46 47 47 48 49 50 51 52 52 52 53 54 54 54 55 55 56 56 56 56 55 55 56 56 56
43 44 44 45 46 46 46 46 46 46 45 45 45 45 46 47 48 49 49 50 50 51 52 52 53 54 54 54 55 56 56 56 56 57 57 57 56 56
43 43 44 45 45 45 45 45 46 46 47 46 46 46 46 46 48 49 49 49 49 50 52 52 53 53 53 53 54 55 56 56 57 57 57 57 58 57
42 43 43 43 44 44 45 45 46 47 47 47 47 47 47 47 47 48 49 49 50 51 52 52 53 53 53 54 53 54 54 55 55 55 56 56 56 56
41 42 43 43 43 44 45 45 46 46 47 47 47 47 48 49 49 50 50 50 50 51 52 52 52 53 52 52 53 53 54 54 54 55 55 55 55 54
41 42 43 44 44 44 45 45 46 46 46 47 48 48 48 49 49 50 51 51 52 51 52 52 52 53 53 52 53 53 54 54 55 55 55 54 54 53
41 41 42 43 44 44 45 45 45 45 45 46 47 48 48 49 49 50 51 52 52 51 51 52 52 53 53 53 53 54 54 54 55 54 53 52 52 52
41 41 41 42 43 44 44 44 45 45 46 47 47 48 49 49 50 50 50 51 51 51 51 51 51 52 53 53 53 54 54 53 52 51 51 52 53 53
40 40 41 41 42 43 43 44 45 46 46 47 46 47 48 48 49 49 50 51 51 51 50 50 50 51 52 52 52 52 52 51 50 50 51 51 52 53
40 40 40 41 42 43 43 43 44 44 44 44 45 46 47 48 48 48 48 48 48 48 48 48 49 49 49 50 50 51 51 51 51 51 51 51 52 53
40 40 41 41 42 42 43 43 43 43 42 43 43 44 45 45 46 46 46 46 46 46 45 46 47 47 47 48 48 49 49 50 51 51 51 51 52 53
39 40 40 41 41 42 42 42 42 41 41 41 42 43 43 44 44 45 45 45 45 44 44 44 44 45 46 47 48 48 49 50 50 51 51 51 51 51
38 38 39 40 40 40 40 40 40 40 40 40 41 41 42 42 43 43 42 42 42 41 42 42 43 43 44 44 44 45 46 47 48 49 50 50 49 48
37 37 38 38 38 38 37 38 38 39 39 40 40 41 41 41 41 40 40 40 40 40 40 40 41 41 41 41 42 43 44 45 46 46 47 47 46 44
36 37 37 37 37 37 37 37 37 38 39 39 40 40 40 40 39 38 38 37 37 38 38 38 39 39 39 40 40 40 41 43 43 43 43 43 42 40
35 35 36 36 36 36 37 38 38 38 38 39 39 39 39 39 38 38 36 36 36 37 37 38 38 39 39 39 39 39 39 40 39 39 40 39 39 38
34 34 35 35 35 36 36 36 37 38 38 38 38 38 38 37 36 36 35 35 35 35 35 35 36 37 37 38 37 37 37 37 36 35 35 35 35 35
Wind_Direction
253 255 256 256 257 257 258 258 258 258 258 260 259 259 259 259 259 259 260 261 261 261 262 263 263 263 263 265 266 268 270 271 271 271 271 272 273 274
254 256 256 257 257 258 258 259 260 260 260 261 260 259 260 260 260 259 260 261 261 262 262 263 263 263 264 265 267 269 270 271 271 272 272 273 273 274
255 256 258 258 258 259 260 261 262 262 262 262 261 261 261 261 261 260 261 261 261 262 263 263 263 264 264 265 267 269 270 271 271 272 273 273 274 275
256 257 259 259 260 260 261 262 263 263 263 263 262 262 261 261 262 261 260 261 261 262 262 263 263 264 265 265 267 268 269 270 270 271 272 273 275 275
259 259 260 261 262 262 263 263 264 264 264 264 263 263 262 262 263 263 261 262 262 262 262 263 263 264 265 265 266 267 268 269 270 270 272 274 275 275
260 261 262 262 262 263 264 264 265 265 265 265 264 264 264 264 265 264 263 263 262 262 262 263 263 265 266 267 267 268 270 271 271 272 273 274 275 275
261 261 262 263 263 263 264 264 264 264 265 265 265 265 265 265 266 265 265 264 262 263 263 263 264 265 267 268 269 269 270 272 273 273 274 275 275 275
263 262 263 263 264 263 263 264 264 264 265 266 267 267 267 267 266 265 265 265 264 263 263 264 264 265 267 267 268 270 271 272 273 274 275 275 275 276
263 263 264 264 265 263 264 265 265 266 266 267 268 268 268 269 268 266 265 265 266 265 264 265 265 266 266 267 268 270 272 273 273 274 276 276 277 277
264 265 265 265 265 265 265 266 268 268 268 267 267 267 267 267 268 267 267 266 266 266 266 267 267 267 267 267 269 271 273 274 275 276 277 277 278 278
267 266 265 265 266 266 267 267 268 269 269 268 267 267 267 267 268 268 267 267 267 267 267 268 268 268 268 268 270 272 274 275 276 277 278 278 278 278
268 267 267 266 267 268 268 268 269 269 269 268 267 267 267 268 268 268 268 268 268 267 267 268 268 268 268 269 270 271 273 274 276 277 278 278 278 278
270 269 268 268 268 270 270 269 269 268 268 268 267 267 267 267 268 268 268 269 269 268 268 268 268 268 269 269 270 271 273 275 276 276 276 276 277 278
271 270 269 269 269 270 271 270 270 268 268 269 269 268 268 267 267 267 268 268 268 268 268 268 269 270 270 270 271 272 272 273 274 274 274 276 278 279
271 270 269 269 269 270 271 271 271 270 269 269 269 269 268 268 268 268 268 268 269 268 268 269 270 270 271 272 272 272 272 272 272 273 275 277 278 279
270 270 269 269 270 271 271 272 272 271 271 270 270 269 269 269 269 269 268 269 269 268 268 269 270 271 272 272 273 273 273 272 273 275 276 277 278 280
271 271 270 270 271 272 272 273 272 272 272 271 271 271 270 270 270 269 269 269 269 268 269 271 271 272 273 274 274 274 274 274 275 275 276 277 278 279
272 272 272 272 272 272 273 273 272 272 273 273 272 272 271 271 270 270 270 270 269 268 270 271 271 272 273 275 276 276 276 276 276 276 276 278 279 280
274 274 274 273 273 273 273 272 272 272 272 273 272 272 272 272 272 271 271 270 268 269 271 272 272 273 274 275 276 277 278 278 278 278 278 278 280 280
275 275 275 274 274 273 273 272 271 271 272 272 272 272 272 272 272 271 270 268 269 271 272 273 273 274 275 276 276 277 279 279 279 279 279 279 279 280
276 276 276 275 274 273 272 272 272 272 273 272 272 272 272 272 272 271 270 269 271 272 273 273 273 274 275 277 278 279 279 281 282 281 280 279 279 278
277 276 276 275 275 274 273 273 273 273 273 272 273 272 271 270 271 270 270 271 273 273 273 273 274 275 276 278 279 280 281 282 282 282 281 280 280 278
278 277 276 276 276 275 274 273 273 273 273 273 273 272 271 270 269 269 271 272 273 274 274 274 275 276 277 278 280 280 281 281 281 281 281 281 281 281
Height
5688 5689 5690 5691 5692 5692 5693 5694 5696 5697 5698 5699 5700 5700 5701 5702 5703 5704 5704 5705 5705 5706 5707 5708 5708 5709 5710 5711 5711 5710 5710 5710 5709 5709 5708 5708 5708 5707
5677 5678 5679 5679 5680 5681 5682 5682 5683 5684 5686 5687 5687 5687 5688 5689 5689 5690 5691 5692 5693 5694 5694 5695 5695 5696 5697 5697 5698 5697 5697 5697 5697 5696 5696 5695 5695 5694
5665 5666 5667 5667 5668 5669 5669 5670 5671 5671 5672 5673 5674 5674 5675 5676 5676 5677 5678 5679 5680 5681 5682 5682 5683 5683 5684 5684 5684 5684 5684 5684 5683 5683 5683 5682 5682 5681
5653 5654 5655 5655 5656 5657 5657 5657 5658 5658 5659 5660 5660 5661 5661 5662 5663 5664 5665 5666 5667 5668 5668 5669 5670 5670 5670 5671 5671 5671 5671 5671 5670 5670 5670 5669 5669 5667
5641 5642 5643 5643 5644 5644 5645 5645 5645 5645 5646 5646 5647 5647 5647 5648 5649 5650 5651 5652 5653 5654 5655 5655 5656 5656 5657 5657 5658 5658 5658 5658 5657 5657 5656 5655 5655 5653
5630 5630 5631 5631 5632 5632 5632 5632 5632 5633 5633 5633 5633 5634 5634 5635 5635 5636 5637 5638 5639 5640 5641 5641 5642 5642 5643 5644 5645 5645 5644 5644 5643 5643 5642 5641 5640 5639
5618 5618 5619 5619 5619 5619 5620 5620 5620 5620 5620 5620 5620 5620 5621 5622 5622 5622 5622 5623 5624 5625 5626 5628 5628 5629 5629 5629 5630 5629 5629 5629 5628 5628 5626 5625 5624 5623
5607 5607 5607 5607 5606 5607 5607 5606 5607 5607 5607 5607 5607 5607 5608 5608 5608 5608 5608 5609 5611 5612 5612 5613 5613 5614 5614 5614 5614 5614 5614 5613 5613 5612 5611 5610 5608 5607
5594 5594 5594 5594 5594 5594 5594 5594 5594 5594 5595 5595 5595 5595 5595 5595 5594 5594 5594 5595 5596 5596 5596 5598 5598 5599 5599 5599 5599 5599 5598 5597 5597 5595 5594 5593 5592 5590
5581 5581 5582 5581 5581 5581 5581 5582 5582 5582 5582 5582 5582 5582 5581 5580 5580 5580 5580 5581 5582 5582 5582 5584 5585 5585 5584 5584 5584 5583 5582 5582 5580 5579 5578 5576 5575 5573
5569 5569 5569 5569 5569 5569 5569 5569 5569 5569 5568 5568 5568 5567 5567 5567 5567 5567 5567 5567 5569 5569 5567 5568 5570 5569 5570 5570 5569 5567 5567 5566 5565 5564 5562 5560 5559 5557
5557 5557 5557 5557 5556 5556 5556 5556 5556 5556 5555 5555 5554 5554 5554 5553 5553 5553 5553 5553 5553 5554 5554 5554 5554 5554 5556 5556 5555 5553 5551 5550 5550 5548 5546 5545 5543 5541
5545 5545 5544 5544 5544 5543 5543 5543 5543 5542 5541 5541 5541 5541 5540 5540 5540 5539 5538 5538 5538 5539 5540 5539 5539 5539 5539 5541 5540 5539 5537 5535 5534 5532 5530 5529 5527 5526
5533 5533 5532 5532 5531 5531 5530 5530 5529 5528 5528 5528 5528 5527 5527 5526 5525 5524 5524 5523 5523 5524 5524 5524 5524 5524 5524 5524 5525 5524 5522 5520 5519 5518 5516 5514 5512 5510
5521 5520 5520 5519 5519 5518 5517 5516 5516 5515 5514 5514 5514 5513 5512 5511 5511 5510 5510 5509 5509 5509 5510 5509 5509 5509 5508 5508 5508 5508 5507 5505 5504 5503 5501 5500 5497 5495
5509 5508 5508 5507 5506 5505 5505 5504 5503 5502 5501 5501 5500 5499 5498 5497 5497 5496 5496 5495 5495 5495 5495 5495 5494 5494 5494 5493 5492 5492 5491 5490 5489 5487 5486 5484 5482 5479
5497 5496 5496 5495 5494 5493 5492 5491 5490 5489 5488 5487 5486 5486 5485 5484 5483 5482 5482 5482 5481 5482 5482 5481 5480 5479 5479 5478 5478 5477 5476 5475 5473 5472 5471 5469 5466 5463
5484 5484 5483 5482 5482 5481 5480 5479 5477 5476 5475 5474 5473 5473 5472 5471 5470 5469 5469 5468 5469 5468 5468 5467 5467 5466 5466 5465 5463 5462 5461 5459 5458 5457 5454 5453 5452 5448
5472 5472 5471 5470 5469 5468 5467 5466 5465 5464 5463 5462 5461 5460 5459 5458 5457 5457 5456 5455 5455 5455 5455 5454 5453 5453 5452 5452 5451 5448 5446 5445 5443 5442 5439 5438 5436 5434
5461 5460 5459 5458 5457 5456 5455 5454 5453 5452 5451 5450 5449 5448 5447 5446 5445 5444 5443 5443 5443 5443 5442 5441 5440 5440 5439 5439 5438 5436 5432 5431 5430 5428 5426 5423 5422 5420
5450 5449 5448 5447 5446 5445 5444 5442 5441 5440 5439 5438 5437 5436 5435 5434 5433 5432 5432 5431 5431 5431 5430 5430 5428 5428 5427 5426 5425 5424 5421 5418 5416 5414 5412 5411 5409 5407
5438 5437 5436 5435 5434 5433 5432 5431 5430 5428 5427 5426 5425 5424 5423 5422 5421 5421 5421 5420 5420 5419 5419 5418 5417 5416 5415 5414 5413 5411 5409 5406 5404 5401 5399 5398 5397 5396
5427 5426 5425 5424 5422 5421 5420 5419 5418 5416 5415 5414 5413 5412 5411 5410 5410 5410 5410 5409 5409 5408 5407 5406 5405 5404 5403 5402 5401 5399 5397 5395 5393 5391 5389 5386 5385 5384